{"data":{"norad_id":65034,"intl_designator":"2025-161V","name":"STARLINK-34610","alt_names":[],"object_type":"PAYLOAD","status":"ACTIVE","operator":null,"country":"US","launch_date":"2025-07-30","launch_site_code":"AFWTR","launch_vehicle":null,"mission":null,"orbit_class":"UNKNOWN","rcs_meters":null,"size_class":null,"mass_kg":null,"dimensions":null,"purposes":["comms"],"wikipedia_slug":null,"has_3d_model":false,"image_url":null,"decayed_at":null,"tle_current":{"epoch":"2026-05-24T19:32:23.118144Z","epoch_age_seconds":91163,"freshness":"FRESH","line1":"1 65034U 25161V   26144.81415646  .00009822  00000+0  34325-3 0  9995","line2":"2 65034  53.1611 300.6946 0001238  81.0464 279.0677 15.30204180 45889","mean_motion":15.3020418,"eccentricity":0.0001238,"inclination_deg":53.1611,"raan_deg":300.6946,"arg_perigee_deg":81.0464,"mean_anomaly_deg":279.0677,"bstar":0.00034325,"rev_number":4588,"period_min":94.105088642484,"perigee_km":474.3541452801,"apogee_km":476.05103216227,"semimajor_km":6853.3395887212,"source":"CELESTRAK","updated_at":"2026-05-25T13:38:20.672162Z"}}}